Time,TemperatureF,DewpointF,PressureIn,WindDirection,WindDirectionDegrees,WindSpeedMPH,WindSpeedGustMPH,Humidity,HourlyPrecipIn,Conditions,Clouds,dailyrainin,SoftwareType,DateUTC
2013-08-20 00:01:00,55.6,54.0,30.01,ENE,74,1.0,3.0,95,0.00,,,0.00,weatherlink.com 1.10,2013-08-19 11:01:00,
2013-08-20 00:16:00,55.4,54.0,30.01,ENE,74,1.0,2.0,95,0.00,,,0.00,weatherlink.com 1.10,2013-08-19 11:16:00,
2013-08-20 00:31:00,55.2,54.0,30.01,ENE,75,1.0,2.0,95,0.00,,,0.00,weatherlink.com 1.10,2013-08-19 11:31:00,
2013-08-20 00:46:00,54.8,53.0,30.01,ENE,76,1.0,3.0,95,0.00,,,0.00,weatherlink.com 1.10,2013-08-19 11:46:00,
2013-08-20 01:01:00,54.7,54.0,30.01,ENE,76,1.0,2.0,96,0.00,,,0.00,weatherlink.com 1.10,2013-08-19 12:01:00,
2013-08-20 01:16:00,55.0,54.0,30.01,ENE,76,0.0,2.0,96,0.00,,,0.00,weatherlink.com 1.10,2013-08-19 12:16:00,
2013-08-20 01:31:00,54.5,53.0,30.02,ENE,76,0.0,2.0,95,0.00,,,0.00,weatherlink.com 1.10,2013-08-19 12:31:00,
2013-08-20 01:46:00,54.2,53.0,30.02,ENE,76,0.0,3.0,96,0.00,,,0.00,weatherlink.com 1.10,2013-08-19 12:46:00,
2013-08-20 02:01:00,54.3,54.0,30.02,ENE,76,1.0,3.0,97,0.00,,,0.00,weatherlink.com 1.10,2013-08-19 13:01:00,
2013-08-20 02:16:00,54.0,53.0,30.02,ENE,76,0.0,1.0,96,0.00,,,0.00,weatherlink.com 1.10,2013-08-19 13:16:00,
2013-08-20 02:31:00,53.3,52.0,30.02,ENE,76,0.0,0.0,95,0.00,,,0.00,weatherlink.com 1.10,2013-08-19 13:31:00,
2013-08-20 02:46:00,53.0,52.0,30.02,ENE,76,0.0,1.0,96,0.00,,,0.00,weatherlink.com 1.10,2013-08-19 13:46:00,
2013-08-20 03:01:00,53.0,52.0,30.03,ENE,76,0.0,0.0,97,0.00,,,0.00,weatherlink.com 1.10,2013-08-19 14:01:00,
2013-08-20 03:16:00,53.1,52.0,30.03,ENE,76,1.0,1.0,97,0.00,,,0.00,weatherlink.com 1.10,2013-08-19 14:16:00,
2013-08-20 03:32:00,53.9,53.0,30.02,ENE,76,0.0,2.0,97,0.00,,,0.00,weatherlink.com 1.10,2013-08-19 14:32:00,
2013-08-20 03:47:00,56.0,56.0,30.03,ENE,76,1.0,1.0,98,0.00,,,0.00,weatherlink.com 1.10,2013-08-19 14:47:00,
2013-08-20 04:02:00,57.8,57.0,30.03,ENE,76,0.0,2.0,98,0.00,,,0.00,weatherlink.com 1.10,2013-08-19 15:02:00,
2013-08-20 04:17:00,59.4,59.0,30.03,ENE,76,1.0,2.0,98,0.00,,,0.00,weatherlink.com 1.10,2013-08-19 15:17:00,
2013-08-20 04:32:00,62.5,61.0,30.02,ENE,57,2.0,5.0,94,0.00,,,0.00,weatherlink.com 1.10,2013-08-19 15:32:00,
2013-08-20 04:47:00,65.4,60.0,30.02,East,80,3.0,5.0,83,0.00,,,0.00,weatherlink.com 1.10,2013-08-19 15:47:00,
2013-08-20 05:02:00,67.5,61.0,30.02,ENE,71,0.0,6.0,80,0.00,,,0.00,weatherlink.com 1.10,2013-08-19 16:02:00,
2013-08-20 05:17:00,69.1,60.0,30.02,ENE,61,4.0,7.0,73,0.00,,,0.00,weatherlink.com 1.10,2013-08-19 16:17:00,
2013-08-20 05:32:00,70.1,60.0,30.02,East,88,5.0,8.0,71,0.00,,,0.00,weatherlink.com 1.10,2013-08-19 16:32:00,
2013-08-20 05:47:00,71.1,60.0,30.02,ESE,123,3.0,6.0,68,0.00,,,0.00,weatherlink.com 1.10,2013-08-19 16:47:00,
2013-08-20 06:02:00,72.5,60.0,30.02,NE,49,0.0,5.0,64,0.00,,,0.00,weatherlink.com 1.10,2013-08-19 17:02:00,
2013-08-20 06:17:00,74.1,60.0,30.02,ENE,77,3.0,8.0,61,0.00,,,0.00,weatherlink.com 1.10,2013-08-19 17:17:00,
2013-08-20 06:32:00,75.5,61.0,30.02,ENE,77,1.0,6.0,62,0.00,,,0.00,weatherlink.com 1.10,2013-08-19 17:32:00,
2013-08-20 06:47:00,77.3,60.0,30.02,ENE,72,2.0,5.0,56,0.00,,,0.00,weatherlink.com 1.10,2013-08-19 17:47:00,
2013-08-20 07:02:00,78.5,59.0,30.03,North,355,6.0,8.0,51,0.00,,,0.00,weatherlink.com 1.10,2013-08-19 18:02:00,
2013-08-20 07:17:00,78.8,57.0,30.02,WNW,296,10.0,11.0,48,0.00,,,0.00,weatherlink.com 1.10,2013-08-19 18:17:00,
2013-08-20 07:32:00,79.5,57.0,30.02,SW,232,2.0,11.0,47,0.00,,,0.00,weatherlink.com 1.10,2013-08-19 18:32:00,
2013-08-20 07:48:00,80.3,58.0,30.02,West,263,7.0,11.0,47,0.00,,,0.00,weatherlink.com 1.10,2013-08-19 18:48:00,
2013-08-20 08:02:00,80.8,59.0,30.01,WNW,298,7.0,12.0,48,0.00,,,0.00,weatherlink.com 1.10,2013-08-19 19:02:00,
2013-08-20 08:17:00,80.9,58.0,30.01,NW,323,16.0,16.0,46,0.00,,,0.00,weatherlink.com 1.10,2013-08-19 19:17:00,
2013-08-20 08:32:00,81.5,59.0,30.01,NNW,335,4.0,12.0,47,0.00,,,0.00,weatherlink.com 1.10,2013-08-19 19:32:00,
2013-08-20 08:48:00,82.0,59.0,30.00,West,278,4.0,15.0,45,0.00,,,0.00,weatherlink.com 1.10,2013-08-19 19:48:00,
2013-08-20 09:03:00,82.2,59.0,30.00,West,266,7.0,12.0,46,0.00,,,0.00,weatherlink.com 1.10,2013-08-19 20:03:00,
2013-08-20 09:18:00,83.0,61.0,30.00,NW,310,8.0,14.0,47,0.00,,,0.00,weatherlink.com 1.10,2013-08-19 20:18:00,
2013-08-20 09:33:00,82.8,59.0,29.99,NW,325,3.0,17.0,45,0.00,,,0.00,weatherlink.com 1.10,2013-08-19 20:33:00,
2013-08-20 09:48:00,83.2,58.0,29.99,WNW,294,8.0,14.0,42,0.00,,,0.00,weatherlink.com 1.10,2013-08-19 20:48:00,
2013-08-20 10:03:00,83.6,59.0,29.98,WNW,295,7.0,15.0,44,0.00,,,0.00,weatherlink.com 1.10,2013-08-19 21:03:00,
2013-08-20 10:18:00,83.8,58.0,29.98,WSW,242,9.0,15.0,42,0.00,,,0.00,weatherlink.com 1.10,2013-08-19 21:18:00,
2013-08-20 10:33:00,84.9,59.0,29.98,WSW,246,1.0,10.0,42,0.00,,,0.00,weatherlink.com 1.10,2013-08-19 21:33:00,
2013-08-20 10:48:00,86.1,58.0,29.98,NW,321,6.0,9.0,39,0.00,,,0.00,weatherlink.com 1.10,2013-08-19 21:48:00,
2013-08-20 11:03:00,85.9,60.0,29.98,SSW,211,5.0,13.0,41,0.00,,,0.00,weatherlink.com 1.10,2013-08-19 22:03:00,
2013-08-20 11:18:00,85.6,58.0,29.97,WSW,247,3.0,10.0,39,0.00,,,0.00,weatherlink.com 1.10,2013-08-19 22:18:00,
2013-08-20 11:33:00,85.9,59.0,29.97,West,278,5.0,9.0,40,0.00,,,0.00,weatherlink.com 1.10,2013-08-19 22:33:00,
2013-08-20 11:48:00,86.1,59.0,29.96,WNW,288,3.0,11.0,40,0.00,,,0.00,weatherlink.com 1.10,2013-08-19 22:48:00,
2013-08-20 12:03:00,85.7,57.0,29.96,SW,233,11.0,15.0,38,0.00,,,0.00,weatherlink.com 1.10,2013-08-19 23:03:00,
2013-08-20 12:18:00,84.7,58.0,29.96,West,275,6.0,17.0,40,0.00,,,0.00,weatherlink.com 1.10,2013-08-19 23:18:00,
2013-08-20 12:33:00,83.7,55.0,29.96,West,279,6.0,10.0,38,0.00,,,0.00,weatherlink.com 1.10,2013-08-19 23:33:00,
2013-08-20 12:48:00,83.5,57.0,29.96,SSW,201,5.0,-999.0,40,-99.99,,,0.00,weatherlink.com 1.10,2013-08-19 23:48:00,
2013-08-20 13:03:00,82.8,55.0,29.95,SSW,204,3.0,11.0,39,0.00,,,0.00,weatherlink.com 1.10,2013-08-20 00:03:00,
2013-08-20 13:18:00,82.1,57.0,29.95,West,269,4.0,10.0,42,0.00,,,0.00,weatherlink.com 1.10,2013-08-20 00:18:00,
2013-08-20 13:33:00,81.6,56.0,29.95,WNW,300,3.0,15.0,41,0.00,,,0.00,weatherlink.com 1.10,2013-08-20 00:33:00,
2013-08-20 13:48:00,81.2,56.0,29.95,SW,219,3.0,8.0,42,0.00,,,0.00,weatherlink.com 1.10,2013-08-20 00:48:00,
2013-08-20 14:03:00,80.7,55.0,29.95,SSW,213,1.0,10.0,42,0.00,,,0.00,weatherlink.com 1.10,2013-08-20 01:03:00,
2013-08-20 14:18:00,80.2,57.0,29.95,South,169,1.0,6.0,45,0.00,,,0.00,weatherlink.com 1.10,2013-08-20 01:18:00,
2013-08-20 14:33:00,80.1,56.0,29.95,SSW,207,2.0,9.0,43,0.00,,,0.00,weatherlink.com 1.10,2013-08-20 01:33:00,
2013-08-20 14:48:00,80.0,57.0,29.95,SW,235,2.0,8.0,45,0.00,,,0.00,weatherlink.com 1.10,2013-08-20 01:48:00,
2013-08-20 15:03:00,79.7,54.0,29.95,WNW,289,2.0,7.0,41,0.00,,,0.00,weatherlink.com 1.10,2013-08-20 02:03:00,
2013-08-20 15:18:00,78.9,55.0,29.95,WSW,258,1.0,6.0,44,0.00,,,0.00,weatherlink.com 1.10,2013-08-20 02:18:00,
2013-08-20 15:33:00,77.0,56.0,29.95,SW,214,3.0,4.0,49,0.00,,,0.00,weatherlink.com 1.10,2013-08-20 02:33:00,
2013-08-20 15:48:00,74.1,55.0,29.96,WSW,253,1.0,3.0,51,0.00,,,0.00,weatherlink.com 1.10,2013-08-20 02:48:00,
2013-08-20 16:04:00,71.8,57.0,29.96,WSW,250,1.0,2.0,59,0.00,,,0.00,weatherlink.com 1.10,2013-08-20 03:04:00,
2013-08-20 16:19:00,67.7,56.0,29.97,NE,42,2.0,3.0,67,0.00,,,0.00,weatherlink.com 1.10,2013-08-20 03:19:00,
2013-08-20 16:34:00,64.9,55.0,29.97,ENE,65,1.0,2.0,71,0.00,,,0.00,weatherlink.com 1.10,2013-08-20 03:34:00,
2013-08-20 16:49:00,63.3,54.0,29.98,East,86,2.0,4.0,71,0.00,,,0.00,weatherlink.com 1.10,2013-08-20 03:49:00,
2013-08-20 17:04:00,62.2,55.0,29.98,East,83,2.0,4.0,76,0.00,,,0.00,weatherlink.com 1.10,2013-08-20 04:04:00,
2013-08-20 17:19:00,60.5,53.0,29.98,ESE,102,2.0,5.0,77,0.00,,,0.00,weatherlink.com 1.10,2013-08-20 04:19:00,
2013-08-20 17:34:00,60.1,53.0,29.99,ENE,61,1.0,3.0,78,0.00,,,0.00,weatherlink.com 1.10,2013-08-20 04:34:00,
2013-08-20 17:49:00,59.0,53.0,29.99,ENE,69,2.0,2.0,81,0.00,,,0.00,weatherlink.com 1.10,2013-08-20 04:49:00,
2013-08-20 18:04:00,58.1,54.0,29.99,ENE,69,2.0,2.0,86,0.00,,,0.00,weatherlink.com 1.10,2013-08-20 05:04:00,
2013-08-20 18:19:00,58.1,55.0,30.00,ENE,65,0.0,5.0,88,0.00,,,0.00,weatherlink.com 1.10,2013-08-20 05:19:00,
2013-08-20 18:34:00,58.3,55.0,30.00,ENE,71,4.0,4.0,87,0.00,,,0.00,weatherlink.com 1.10,2013-08-20 05:34:00,
2013-08-20 18:49:00,58.3,55.0,29.99,ENE,69,3.0,5.0,87,0.00,,,0.00,weatherlink.com 1.10,2013-08-20 05:49:00,
2013-08-20 19:04:00,57.7,54.0,29.99,East,82,1.0,3.0,86,0.00,,,0.00,weatherlink.com 1.10,2013-08-20 06:04:00,
2013-08-20 19:19:00,57.1,53.0,29.99,ENE,71,1.0,3.0,87,0.00,,,0.00,weatherlink.com 1.10,2013-08-20 06:19:00,
2013-08-20 19:34:00,56.3,53.0,29.99,ENE,70,3.0,3.0,88,0.00,,,0.00,weatherlink.com 1.10,2013-08-20 06:34:00,
2013-08-20 19:49:00,55.7,53.0,30.00,ENE,63,1.0,3.0,89,0.00,,,0.00,weatherlink.com 1.10,2013-08-20 06:49:00,
2013-08-20 20:04:00,55.3,52.0,30.00,NE,56,1.0,3.0,89,0.00,,,0.00,weatherlink.com 1.10,2013-08-20 07:04:00,
2013-08-20 20:19:00,55.0,52.0,30.00,ENE,67,2.0,2.0,90,0.00,,,0.00,weatherlink.com 1.10,2013-08-20 07:19:00,
2013-08-20 20:34:00,54.6,52.0,30.01,ENE,67,2.0,3.0,91,0.00,,,0.00,weatherlink.com 1.10,2013-08-20 07:34:00,
2013-08-20 20:49:00,54.3,52.0,30.01,East,87,1.0,3.0,92,0.00,,,0.00,weatherlink.com 1.10,2013-08-20 07:49:00,
2013-08-20 21:04:00,54.0,52.0,30.01,East,87,1.0,2.0,93,0.00,,,0.00,weatherlink.com 1.10,2013-08-20 08:04:00,
2013-08-20 21:19:00,53.7,52.0,30.01,ENE,65,1.0,3.0,93,0.00,,,0.00,weatherlink.com 1.10,2013-08-20 08:19:00,
2013-08-20 21:34:00,53.8,52.0,30.01,ENE,65,0.0,2.0,95,0.00,,,0.00,weatherlink.com 1.10,2013-08-20 08:34:00,
2013-08-20 21:49:00,53.6,52.0,30.01,ENE,69,1.0,3.0,95,0.00,,,0.00,weatherlink.com 1.10,2013-08-20 08:49:00,
2013-08-20 22:04:00,53.9,53.0,30.00,East,83,2.0,5.0,95,0.00,,,0.00,weatherlink.com 1.10,2013-08-20 09:04:00,
2013-08-20 22:19:00,54.0,52.0,30.01,ESE,119,0.0,1.0,94,0.00,,,0.00,weatherlink.com 1.10,2013-08-20 09:19:00,
2013-08-20 22:34:00,53.3,51.0,30.01,ESE,119,1.0,1.0,92,0.00,,,0.00,weatherlink.com 1.10,2013-08-20 09:34:00,
2013-08-20 22:49:00,52.0,50.0,30.02,ENE,66,1.0,3.0,93,0.00,,,0.00,weatherlink.com 1.10,2013-08-20 09:49:00,
2013-08-20 23:04:00,51.7,50.0,30.02,ENE,57,1.0,3.0,94,0.00,,,0.00,weatherlink.com 1.10,2013-08-20 10:04:00,
2013-08-20 23:19:00,51.5,50.0,30.02,ENE,78,2.0,3.0,94,0.00,,,0.00,weatherlink.com 1.10,2013-08-20 10:19:00,
2013-08-20 23:34:00,50.8,49.0,30.02,ENE,65,1.0,2.0,94,0.00,,,0.00,weatherlink.com 1.10,2013-08-20 10:34:00,
2013-08-20 23:49:00,50.2,49.0,30.02,ENE,68,1.0,2.0,95,0.00,,,0.00,weatherlink.com 1.10,2013-08-20 10:49:00,